Create Custom Reports and Graphics: Custom Report

Belmont 8000'

Squaw Valley

9/2/26 11:30 PM (-07:00)
Updated Every 15 Minutes
Temp 40.5 °F   2.5
RH 84 %   12
Dew Pt 36.0 °F   6.2
Wet Bulb 38.2 °F   4.0
Wind Dir SSE | 149 °
Wind Spd 9.9 mph   4.2
Wind Gust 17.0 mph   12.6
WindChill 34.6 °F   4.6
Daily Min Temp 36.3 °F   1.1
Daily Max Temp 49.2 °F   7.6
Latest Rain 0.00 In
Daily Rain 0.00 In

Last 24 Hours

OV-Belmont 8000'

Hourly Data | America/Los_Angeles
as of 9/2/26 11:43 PM PDT
Date & Time Temp (°F) RH (%) Dew Pt (°F) Wet Bulb (°F) Wind Dir (°) Wind Spd (mph) Wind Gust (mph) WindChill (°F) Latest Rain (In) Daily Min Temp (°F) Daily Max Temp (°F) Daily Rain (In)
9/2/26 - 2300 40.6 87 37.0 38.8 SSE | 156 12.3 23.0 33.5 0.00 36.3 49.2 0.00
9/2/26 - 2200 40.5 85 36.3 38.4 SSE | 155 13.1 24.5 33.5 0.00 36.3 49.2 0.00
9/2/26 - 2100 41.1 82 36.2 38.6 SSE | 148 12.2 28.7 34.5 0.00 36.3 49.2 0.00
9/2/26 - 2000 41.3 85 37.2 39.2 SSE | 164 9.0 26.2 36.7 0.00 36.3 49.2 0.00
9/2/26 - 1900 42.2 81 36.8 39.4 S | 171 11.2 32.7 37.3 0.00 36.3 49.2 0.00
9/2/26 - 1800 44.3 76 37.3 40.6 S | 182 12.2 27.4 40.5 0.00 36.3 49.2 0.00
9/2/26 - 1700 46.4 67 36.1 41.1 SSW | 192 14.4 30.9 41.2 0.00 36.3 48.6 0.00
9/2/26 - 1600 46.6 64 35.2 40.9 S | 187 11.8 29.6 41.9 0.00 36.3 48.2 0.00
9/2/26 - 1500 47.5 61 34.9 41.0 S | 187 11.2 27.6 41.1 0.00 36.3 47.5 0.00
9/2/26 - 1400 46.0 67 35.7 40.7 S | 171 10.2 29.6 40.9 0.00 36.3 46.9 0.00
9/2/26 - 1300 45.2 68 35.5 40.2 S | 179 11.4 29.7 39.1 0.00 36.3 46.7 0.00
9/2/26 - 1200 44.3 72 35.7 39.9 S | 181 12.6 31.4 37.0 0.00 36.3 44.6 0.00
9/2/26 - 1100 42.8 73 34.6 38.7 S | 174 8.9 25.3 36.2 0.00 36.3 43.8 0.00
9/2/26 - 1000 39.7 84 35.2 37.4 SSE | 160 8.9 28.2 33.9 0.00 36.3 40.3 0.00
9/2/26 - 0900 38.3 85 34.2 36.3 SSE | 157 11.8 29.6 30.8 0.00 36.3 38.6 0.00
9/2/26 - 0800 37.8 85 33.6 35.7 SSE | 154 8.9 23.5 31.4 0.00 36.3 38.6 0.00
9/2/26 - 0700 37.0 86 33.3 35.1 SSE | 165 6.4 22.8 32.2 0.00 36.3 38.6 0.00
9/2/26 - 0600 36.6 84 32.3 34.6 S | 176 6.7 24.0 31.9 0.00 36.3 38.6 0.00
9/2/26 - 0500 36.4 80 30.9 33.9 SSE | 167 6.8 30.2 32.0 0.00 36.3 38.6 0.00
9/2/26 - 0400 36.7 80 31.0 34.1 S | 184 12.7 36.1 29.0 0.00 36.4 38.6 0.00
9/2/26 - 0300 36.9 79 31.2 34.2 S | 190 16.7 38.5 28.7 0.00 36.9 38.6 0.00
9/2/26 - 0200 38.3 68 28.5 33.8 SSE | 159 13.2 34.2 30.6 0.00 37.6 38.6 0.00
9/2/26 - 0100 37.7 69 28.5 33.5 SSE | 163 9.7 31.5 32.0 0.00 37.6 38.3 0.00
9/2/26 - 0000 38.1 67 28.0 33.6 SSE | 158 10.3 29.6 31.7 0.00 37.4 56.8 0.00
9/1/26 - 2300 38.1 74 30.7 34.6 SE | 137 8.7 32.1 32.6 0.00 37.4 56.8 0.00
Max 47.5 87 37.3 41.1 - 16.7 38.5 41.9 0.00 37.6 56.8 0.00
Avg 40.8 76 33.8 37.4 - 10.9 29.1 34.8 0.00 - - -
Min 36.4 61 28.0 33.5 - 6.4 22.8 28.7 0.00 36.3 38.3 0.00
Total - - - - - - - - 0.00 - - -

Last 30 Days

OV-Belmont 8000'

Daily Data | America/Los_Angeles
as of 9/2/26 11:43 PM PDT
Date Daily Max Temp (°F) Time of Max Temp Daily Min Temp (°F) Time of Min Temp Daily Rain (In) Season Precip (In) Wind Spd (mph) Daily Max Wind (mph) Time of Max Wind Max Wind Dir (°) Daily Max RH (%) Daily Min RH (%) Wet Bulb (°F) WetB Hrs <28F (hrs) MinBV Day (V)
9/1/26 56.8 1305 37.4 2212 0.00 102.80 13.4 52.7 1522 ENE | 67 79 30 39.5 0.0 13.1
8/31/26 67.6 1342 48.7 2359 0.00 102.80 10.4 29.4 2102 SSE | 168 66 25 44.3 0.0 13.0
8/30/26 68.6 1530 49.0 0351 0.00 102.80 8.6 24.1 0858 SSW | 204 54 21 43.4 0.0 13.1
8/29/26 63.4 1511 48.3 0641 0.00 102.80 9.9 29.4 1106 SE | 142 92 32 46.2 0.0 12.7
8/28/26 56.2 0149 48.4 1047 0.11 102.80 8.6 18.6 2204 S | 174 98 43 47.9 0.0 13.2
8/27/26 71.3 1303 55.4 2357 0.00 102.70 9.4 27.0 0208 SW | 231 55 23 46.5 0.0 13.0
8/26/26 72.4 1510 58.2 0359 0.00 102.70 10.5 34.9 1358 SW | 226 64 28 50.4 0.0 13.0
8/25/26 71.2 1651 55.6 0348 0.00 102.70 9.2 31.0 0927 SSW | 203 51 33 49.0 0.0 13.0
8/24/26 73.5 1351 57.4 2302 0.00 102.70 9.4 30.3 1405 WSW | 245 53 34 49.9 0.0 13.0
8/23/26 72.6 1337 57.4 0236 0.00 102.70 10.6 27.1 1409 NNW | 329 57 29 49.7 0.0 12.6
8/22/26 70.8 1242 57.6 0704 0.00 102.70 8.5 30.2 1426 SSW | 202 51 32 48.6 0.0 12.6
8/21/26 74.4 1241 59.4 2333 0.00 102.70 11.8 26.1 1956 WSW | 240 49 26 49.3 0.0 13.0
8/20/26 75.3 1424 60.1 2030 0.00 102.70 11.3 28.3 1457 W | 280 41 20 47.9 0.0 13.0
8/19/26 77.0 1346 57.9 0626 0.00 102.70 6.7 22.9 2247 SSW | 213 45 21 49.6 0.0 13.0
8/18/26 74.9 1709 57.0 0130 0.00 102.70 6.7 20.0 1320 SW | 231 48 21 48.4 0.0 13.0
8/17/26 70.9 1147 55.6 0557 0.00 102.70 9.4 33.8 1533 SSW | 196 54 32 48.4 0.0 13.0
8/16/26 72.0 1442 53.7 0051 0.00 102.70 8.9 23.5 0442 SSE | 168 52 25 46.2 0.0 13.0
8/15/26 65.5 1623 50.6 0703 0.00 102.70 12.3 29.8 0216 NNE | 20 71 31 45.3 0.0 13.1
8/14/26 64.0 1525 49.5 0341 0.00 102.70 11.5 27.8 0516 SSW | 207 79 46 47.6 0.0 13.1
8/13/26 63.0 1254 52.0 2356 0.00 102.70 12.0 33.0 1508 WSW | 242 76 55 49.9 0.0 13.1
8/12/26 69.3 1640 57.4 2359 0.00 102.70 11.3 30.6 1231 SW | 227 64 19 48.9 0.0 13.0
8/11/26 77.2 1513 61.3 2211 0.00 102.70 11.9 25.0 0303 SSE | 151 35 16 47.7 0.0 13.0
8/10/26 77.7 1154 63.4 2106 0.00 102.70 10.4 26.5 1400 SW | 234 42 19 49.9 0.0 13.0
8/9/26 83.4 1450 65.7 2111 0.00 102.70 5.9 19.9 1522 NW | 309 36 16 50.6 0.0 13.0
8/8/26 85.3 1608 66.8 2357 0.00 102.70 5.3 17.7 1845 WNW | 289 40 21 53.2 0.0 13.0
8/7/26 87.8 1633 66.5 0124 0.00 102.70 5.9 19.9 1447 NNW | 348 39 17 52.6 0.0 13.0
8/6/26 80.2 1523 64.3 0359 0.00 102.70 9.7 22.6 1424 WSW | 251 33 15 50.2 0.0 13.0
8/5/26 80.7 1653 58.9 0609 0.00 102.70 8.0 19.1 1515 SW | 225 43 11 47.9 0.0 13.0
8/4/26 80.5 1446 58.7 0448 0.00 102.70 5.0 18.3 1805 W | 259 39 11 48.4 0.0 13.0
8/3/26 81.3 1608 55.3 0610 0.00 102.70 3.7 17.3 1937 WNW | 293 41 13 47.7 0.0 13.0
Max 87.8 - 66.8 - 0.11 102.80 13.4 52.7 - - 98 55 53.2 0.0 13.2
Avg - - - - - - 9.2 - - - - - 48.2 - -
Min 56.2 - 37.4 - 0.00 102.70 3.7 17.3 - - 33 11 39.5 0.0 12.6
Calm: 0.0%
Calm: 0.0%